^^
Station Historical Data
 
Daily Summary for June 23, 2018 Units:  English    Metric   Both
Next Day »
Daily Weekly Monthly Yearly Custom
  Current: High: Low: Average:
Temperature: 89.8 °F 89.8 °F 72.7 °F 79.3 °F
Dew Point: 49.3 °F 49.3 °F 41 °F 45.1 °F
Humidity: 25% 39% 23% 30%
Wind Speed: 8mph 9.2mph 0mph 2.1mph
Wind Gust: 2.6mph 4.9mph - -
WindSE - - East
Pressure: 29.7 in 29.7 in 29.6 in -
Precipitation: 0 in      
Historical Graphs
 
 
Tabular Data for June 23, 2018
Time Temperature Dew Point Pressure Wind Wind Speed Wind Gust Humidity Rainfall Rate (Hourly) solar Conditions
00:05 83.7 °F 43 °F 29.6 in Calm   2 mph 24% 0 in 0.00 W/m2 CLR
00:09 83.5 °F 42.8 °F 29.6 in NW 2.3 mph 0.9 mph 24% 0 in 0.00 W/m2 CLR
00:15 83.1 °F 41.5 °F 29.6 in NW 1 mph 3 mph 23% 0 in 0.00 W/m2 CLR
00:19 83.1 °F 41.5 °F 29.6 in North 3.5 mph 1.9 mph 23% 0 in 0.00 W/m2 CLR
00:25 82.9 °F 41.4 °F 29.6 in North 1 mph 4 mph 23% 0 in 0.00 W/m2 CLR
00:29 82.9 °F 41.4 °F 29.6 in North 2.3 mph 0.9 mph 23% 0 in 0.00 W/m2 CLR
00:35 82.9 °F 41.4 °F 29.6 in North 1 mph 2 mph 23% 0 in 0.00 W/m2 CLR
00:39 82.8 °F 41.2 °F 29.6 in NNE 3.5 mph 1.7 mph 23% 0 in 0.00 W/m2 CLR
00:44 82.8 °F 41.2 °F 29.6 in North 3.5 mph 2 mph 23% 0 in 0.00 W/m2 CLR
00:49 82.8 °F 41.2 °F 29.6 in North 2.3 mph 1.1 mph 23% 0 in 0.00 W/m2 CLR
00:54 82.6 °F 41 °F 29.6 in North 2.3 mph 1.1 mph 23% 0 in 0.00 W/m2 CLR
00:59 82.6 °F 41 °F 29.6 in North 1.2 mph 0.9 mph 23% 0 in 0.00 W/m2 CLR
01:04 82.6 °F 42.1 °F 29.6 in North 1.2 mph 0.2 mph 24% 0 in 0.00 W/m2 CLR
01:09 82.6 °F 44.1 °F 29.6 in North 1 mph 0.4 mph 26% 0 in 0.00 W/m2 CLR
01:14 82 °F 45.9 °F 29.6 in North 1.2 mph 0.3 mph 28% 0 in 0.00 W/m2 CLR
01:19 81.7 °F 45.3 °F 29.6 in NNE 2.3 mph 0.7 mph 28% 0 in 0.00 W/m2 CLR
01:24 81.1 °F 44.1 °F 29.6 in NNE 3.5 mph 1.9 mph 27% 0 in 0.00 W/m2 CLR
01:29 81 °F 43.9 °F 29.6 in NNE 2.3 mph 1.6 mph 27% 0 in 0.00 W/m2 CLR
01:34 80.8 °F 43.7 °F 29.6 in NNE 2.3 mph 0.9 mph 27% 0 in 0.00 W/m2 CLR
01:39 80.8 °F 43.7 °F 29.6 in NNE 2.3 mph 0.4 mph 27% 0 in 0.00 W/m2 CLR
01:44 80.8 °F 43.5 °F 29.6 in NNE 2.3 mph 0.6 mph 27% 0 in 0.00 W/m2 CLR
01:49 80.6 °F 43.5 °F 29.6 in NNE 2.3 mph 1.6 mph 27% 0 in 0.00 W/m2 CLR
01:54 80.4 °F 43.3 °F 29.6 in NNE 3 mph 1.4 mph 27% 0 in 0.00 W/m2 CLR
01:59 80.2 °F 43.3 °F 29.6 in NNE 2.3 mph 1.3 mph 27% 0 in 0.00 W/m2 CLR
02:04 80.1 °F 43.2 °F 29.6 in NNE 3.5 mph 1 mph 27% 0 in 0.00 W/m2 CLR
02:09 79.9 °F 42.8 °F 29.6 in NNE 2.3 mph 1 mph 27% 0 in 0.00 W/m2 CLR
02:14 79.7 °F 43.7 °F 29.6 in NNE 2.3 mph 1.1 mph 28% 0 in 0.00 W/m2 CLR
02:19 79.5 °F 43.5 °F 29.6 in NNE 1.2 mph   28% 0 in 0.00 W/m2 CLR
02:24 79.3 °F 44.4 °F 29.6 in NNE 1.2 mph 0.1 mph 29% 0 in 0.00 W/m2 CLR
02:29 79.2 °F 44.2 °F 29.6 in NNE 1.2 mph 0.4 mph 29% 0 in 0.00 W/m2 CLR
02:34 79.2 °F 43.2 °F 29.6 in Calm     28% 0 in 0.00 W/m2 CLR
02:39 79 °F 43 °F 29.6 in NNE 1.2 mph 1.2 mph 28% 0 in 0.00 W/m2 CLR
02:44 78.6 °F 43.9 °F 29.6 in NNE 2.3 mph 0.1 mph 29% 0 in 0.00 W/m2 CLR
02:49 78.4 °F 44.4 °F 29.6 in NNE 2.3 mph 0.7 mph 30% 0 in 0.00 W/m2 CLR
02:54 78.3 °F 45.1 °F 29.6 in NNE 1.2 mph 0.4 mph 31% 0 in 0.00 W/m2 CLR
02:59 78.1 °F 45 °F 29.6 in NNE 1.2 mph   31% 0 in 0.00 W/m2 CLR
03:04 77.7 °F 44.8 °F 29.6 in NNE 1 mph 0.3 mph 31% 0 in 0.00 W/m2 CLR
03:09 77.5 °F 45.3 °F 29.6 in NNE 2.3 mph 0.6 mph 32% 0 in 0.00 W/m2 CLR
03:14 77.4 °F 46 °F 29.6 in NNE 1.2 mph   33% 0 in 0.00 W/m2 CLR
03:19 77.2 °F 46.6 °F 29.6 in NNE 1.2 mph 0.3 mph 34% 0 in 0.00 W/m2 CLR
03:24 76.8 °F 45.7 °F 29.6 in Calm     33% 0 in 0.00 W/m2 CLR
03:29 76.6 °F 46 °F 29.6 in NNE 2.3 mph 0.2 mph 34% 0 in 0.00 W/m2 CLR
03:34 76.5 °F 45.9 °F 29.6 in NNE 1.2 mph 0.3 mph 34% 0 in 0.00 W/m2 CLR
03:39 76.3 °F 45.9 °F 29.6 in NNE 1.2 mph   34% 0 in 0.00 W/m2 CLR
03:44 75.9 °F 45.7 °F 29.6 in NNE 2.3 mph 1.2 mph 34% 0 in 0.00 W/m2 CLR
03:49 75.7 °F 45.3 °F 29.6 in NNE 2.3 mph 0.8 mph 34% 0 in 0.00 W/m2 CLR
03:54 75.7 °F 44.6 °F 29.6 in NNE 1.2 mph 0.5 mph 33% 0 in 0.00 W/m2 CLR
03:59 75.7 °F 45.3 °F 29.6 in NNE 1.2 mph 0.2 mph 34% 0 in 0.00 W/m2 CLR
04:04 75.7 °F 44.4 °F 29.6 in NNE 1.2 mph 0.9 mph 33% 0 in 0.00 W/m2 CLR
04:09 75.6 °F 44.4 °F 29.6 in Calm     33% 0 in 0.00 W/m2 CLR
04:14 75.6 °F 45.1 °F 29.6 in NNE 1.2 mph 0.8 mph 34% 0 in 0.00 W/m2 CLR
04:19 75.4 °F 45.1 °F 29.6 in NNE 1.2 mph 0.7 mph 34% 0 in 0.00 W/m2 CLR
04:24 75.4 °F 45 °F 29.6 in Calm     34% 0 in 0.00 W/m2 CLR
04:29 75.2 °F 45 °F 29.6 in NNE 1.2 mph 0.1 mph 34% 0 in 0.00 W/m2 CLR
04:34 75 °F 44.8 °F 29.6 in Calm     34% 0 in 0.00 W/m2 CLR
04:39 74.8 °F 44.6 °F 29.6 in NNE 1.2 mph 0.3 mph 34% 0 in 0.00 W/m2 CLR
04:44 74.7 °F 44.4 °F 29.6 in Calm     34% 0 in 0.00 W/m2 CLR
04:49 74.7 °F 44.4 °F 29.6 in Calm     34% 0 in 0.00 W/m2 CLR
04:54 74.7 °F 44.4 °F 29.6 in Calm     34% 0 in 0.00 W/m2 CLR
04:59 74.5 °F 44.2 °F 29.6 in Calm     34% 0 in 0.00 W/m2 CLR
05:04 74.3 °F 45 °F 29.6 in Calm     35% 0 in 0.00 W/m2 CLR
05:09 74.1 °F 45.3 °F 29.6 in Calm     36% 0 in 0.00 W/m2 CLR
05:14 73.8 °F 45.9 °F 29.6 in NNE 1.2 mph 0.1 mph 37% 0 in 0.00 W/m2 CLR
05:19 73.8 °F 45.9 °F 29.6 in Calm     37% 0 in 0.00 W/m2 CLR
05:24 73.6 °F 45 °F 29.6 in NNE 2.3 mph 0.8 mph 36% 0 in 7.00 W/m2 CLR
05:29 73.2 °F 44.6 °F 29.6 in Calm     36% 0 in 9.00 W/m2 CLR
05:34 73 °F 44.4 °F 29.6 in Calm     36% 0 in 11.00 W/m2 CLR
05:39 73 °F 45.1 °F 29.7 in Calm     37% 0 in 14.00 W/m2 CLR
05:44 72.9 °F 45.1 °F 29.7 in Calm     37% 0 in 18.00 W/m2 CLR
05:49 72.9 °F 45 °F 29.7 in Calm     37% 0 in 21.00 W/m2 CLR
05:54 72.7 °F 45.7 °F 29.7 in Calm     38% 0 in 32.00 W/m2 CLR
05:59 72.7 °F 45.5 °F 29.7 in NNE 3 mph 1.7 mph 38% 0 in 67.00 W/m2 CLR
06:04 72.9 °F 46.4 °F 29.7 in Calm     39% 0 in 84.00 W/m2 CLR
06:09 73 °F 46.6 °F 29.7 in Calm     39% 0 in 104.00 W/m2 CLR
06:14 73.2 °F 46.8 °F 29.7 in Calm     39% 0 in 120.00 W/m2 CLR
06:19 73.8 °F 47.1 °F 29.7 in NNE 1.2 mph   39% 0 in 142.00 W/m2 CLR
06:24 73.9 °F 47.5 °F 29.7 in Calm     39% 0 in 163.00 W/m2 CLR
06:29 74.7 °F 47.5 °F 29.7 in Calm     38% 0 in 186.00 W/m2 CLR
06:34 75.4 °F 47.8 °F 29.7 in Calm     38% 0 in 207.00 W/m2 CLR
06:39 75.9 °F 47.8 °F 29.7 in NNE 1.2 mph 0.1 mph 37% 0 in 229.00 W/m2 CLR
06:44 76.6 °F 47.7 °F 29.7 in Calm     36% 0 in 244.00 W/m2 CLR
06:49 77.7 °F 47.1 °F 29.7 in Calm     34% 0 in 264.00 W/m2 CLR
06:54 79 °F 46.6 °F 29.7 in East 2.3 mph 0.1 mph 32% 0 in 281.00 W/m2 CLR
06:59 79.9 °F 46.6 °F 29.7 in Calm     31% 0 in 301.00 W/m2 CLR
07:04 80.8 °F 46.4 °F 29.7 in SE 1.2 mph 0.1 mph 30% 0 in 318.00 W/m2 CLR
07:09 81.9 °F 46.4 °F 29.7 in Calm     29% 0 in 336.00 W/m2 CLR
07:14 82.6 °F 46.2 °F 29.7 in SE 2 mph 1.2 mph 28% 0 in 355.00 W/m2 CLR
07:19 83.7 °F 46 °F 29.7 in East 4.6 mph 1.1 mph 27% 0 in 373.00 W/m2 CLR
07:24 84.7 °F 46 °F 29.7 in ESE 3.5 mph 1.6 mph 26% 0 in 387.00 W/m2 CLR
07:29 85.6 °F 46.8 °F 29.7 in SSE 3.5 mph 2.1 mph 26% 0 in 404.00 W/m2 CLR
07:34 86.4 °F 46.2 °F 29.7 in East 4.6 mph 1.6 mph 25% 0 in 424.00 W/m2 CLR
07:39 86.9 °F 46.8 °F 29.7 in WSW 8.1 mph 4.1 mph 25% 0 in 441.00 W/m2 CLR
07:44 87.1 °F 46.9 °F 29.7 in SE 8.1 mph 3.9 mph 25% 0 in 459.00 W/m2 CLR
07:49 87.3 °F 47.1 °F 29.7 in ESE 8.1 mph 2 mph 25% 0 in 478.00 W/m2 CLR
07:54 87.6 °F 47.5 °F 29.7 in East 4.6 mph 2.1 mph 25% 0 in 492.00 W/m2 CLR
07:59 88 °F 47.7 °F 29.7 in West 8.1 mph 4.5 mph 25% 0 in 510.00 W/m2 CLR
08:04 88 °F 47.8 °F 29.7 in SE 8.1 mph 3.1 mph 25% 0 in 526.00 W/m2 CLR
08:09 88.2 °F 47.8 °F 29.7 in East 4.6 mph 1.4 mph 25% 0 in 543.00 W/m2 CLR
08:14 88.5 °F 48.2 °F 29.7 in SSE 5.8 mph 3.5 mph 25% 0 in 559.00 W/m2 CLR
08:19 88.7 °F 48.4 °F 29.7 in ENE 9.2 mph 2.7 mph 25% 0 in 577.00 W/m2 CLR
08:24 89.1 °F 48.6 °F 29.7 in East 9.2 mph 4.9 mph 25% 0 in 589.00 W/m2 CLR
08:29 89.2 °F 48.9 °F 29.7 in ENE 4.6 mph 3.9 mph 25% 0 in 606.00 W/m2 CLR
08:34 89.4 °F 48.9 °F 29.7 in SE 4.6 mph 2.8 mph 25% 0 in 622.00 W/m2 CLR
08:39 89.8 °F 49.3 °F 29.7 in SE 8 mph 2.6 mph 25% 0 in 638.00 W/m2 CLR
Countryside Manor, Tucson, AZ, USA